Location: Arborea
(39.7744°N, 8.5819°E)
Time: 00:46:31
(UTC+00:00)

CZ-4 R/B - Pass Details

Date: 24 October 2021
Orbit: 531 x 595 km, 97.8° (Epoch: 27 November)

Event Time Altitude Azimuth Distance (km) Brightness Sun altitude
Exits shadow 18:01:09 12° 152° (SSE) 1,699 3.5 -17.5°
Maximum altitude 18:04:42 58° 75° (ENE) 670 1.4 -18.1°
Drops below altitude 10° 18:08:45 10° 356° (N) 1,898 4.1 -18.9°
Sets 18:10:57 0° 352° (N) 2,811 5.0 -19.4°
